Wind_Speed
45 45 44 44 43 44 42 44 39 46 26 26 26 25 32 32 27 15 13 13 13 10 7 4 2 5 9 12 14 11 9 2 6 10 14 18 20 21 25 25 22 25 24
44 47 47 47 49 49 47 47 46 48 49 40 40 27 23 26 23 18 19 20 19 14 9 7 7 2 11 11 12 11 11 7 4 8 12 14 18 17 22 25 26 22 30
41 46 48 48 49 50 50 51 51 49 51 51 47 49 43 32 26 24 26 24 22 18 12 10 9 5 9 12 12 10 11 11 8 7 5 11 15 16 16 20 23 24 24
45 47 48 49 50 50 49 49 48 49 52 53 52 50 51 43 33 32 34 28 23 21 16 14 11 6 7 8 11 11 12 12 11 13 10 9 12 14 15 17 21 23 26
43 41 45 45 48 48 47 46 44 42 40 44 47 53 53 50 40 33 31 28 28 25 19 18 12 10 8 6 9 12 13 13 13 12 13 9 10 14 14 15 20 22 26
39 42 43 43 43 42 40 36 36 32 34 35 37 40 47 48 45 45 35 28 32 28 24 17 16 13 8 10 9 12 15 14 13 13 12 12 13 12 15 17 20 22 24
42 48 50 38 33 31 30 29 25 23 25 25 25 29 37 39 43 39 43 40 33 31 29 27 22 18 11 10 10 13 16 17 14 12 14 13 14 16 15 16 18 20 21
50 51 39 33 30 25 22 20 23 19 19 19 19 23 30 30 36 39 40 42 34 36 30 29 24 17 13 11 9 11 15 18 15 15 13 12 13 17 15 15 17 18 20
48 39 31 27 21 16 13 18 22 21 18 18 16 22 29 30 33 42 43 39 40 39 37 33 27 21 15 12 9 8 12 17 19 17 16 15 14 13 14 22 17 18 19
37 34 29 22 15 13 10 19 16 20 18 13 12 14 22 26 36 47 43 45 42 39 38 34 29 25 19 16 9 9 13 14 18 19 17 15 16 12 12 18 17 18 22
30 25 21 17 11 11 12 15 14 12 14 9 7 11 16 21 29 42 45 47 44 43 42 36 31 30 22 18 14 11 13 14 15 19 18 16 16 18 17 15 19 18 20
23 20 18 9 10 13 17 18 15 14 16 15 9 8 9 14 24 35 47 46 43 48 43 37 33 26 25 20 16 11 10 9 11 13 15 16 15 16 16 19 22 22 22
20 16 17 16 15 16 12 15 13 11 14 15 13 11 11 13 18 33 43 49 43 44 45 39 34 26 20 20 19 11 8 6 9 7 11 14 15 18 18 19 18 20 20
15 16 17 20 25 20 21 13 17 12 15 20 17 17 15 13 17 25 42 46 43 47 48 43 36 28 24 23 21 12 10 6 4 5 10 13 12 16 18 19 20 20 19
14 15 13 17 12 13 16 7 12 16 14 25 21 22 20 17 17 23 35 40 43 47 46 40 35 29 25 24 22 16 9 8 8 11 10 10 19 17 17 17 18 17 16
15 12 7 7 9 10 8 6 6 10 19 16 19 25 24 21 17 23 31 41 44 41 44 41 38 32 28 23 23 21 12 10 11 12 13 14 17 18 17 15 15 11 10
9 8 8 5 9 10 11 10 10 9 10 17 10 15 29 29 21 19 28 39 44 39 41 38 40 36 31 28 23 23 19 15 18 14 11 15 14 17 16 15 10 8 8
10 11 11 9 7 12 18 18 16 17 17 21 19 20 17 26 25 24 28 38 45 42 39 39 37 39 28 29 19 23 21 18 15 12 15 12 15 12 14 12 8 8 6
15 18 18 13 17 17 20 18 19 18 22 25 25 21 17 28 29 27 27 35 45 45 38 38 38 40 31 27 23 22 23 18 16 14 17 16 14 11 10 14 13 13 13
10 8 10 13 10 12 16 21 21 23 21 24 26 30 24 27 33 32 31 33 44 47 40 40 37 39 37 31 27 22 21 26 19 16 16 16 17 15 14 11 15 16 14
12 0 7 9 15 19 20 18 19 17 20 19 21 22 28 28 39 38 37 35 39 46 43 43 41 38 34 35 33 27 21 22 22 20 21 25 22 18 15 14 16 17 18
19 11 9 9 14 27 25 28 20 18 20 21 21 23 21 24 38 44 42 42 39 37 42 45 43 41 36 35 35 29 23 21 22 17 20 20 22 21 20 20 17 19 10
25 14 14 15 19 28 32 32 27 19 18 20 24 26 26 24 32 44 46 47 43 42 43 48 43 43 40 39 34 29 25 26 25 21 22 23 21 20 23 22 24 23 24
23 14 16 20 26 26 26 36 27 23 21 24 26 28 31 30 29 40 47 51 45 46 46 49 43 42 40 38 37 33 26 25 23 21 21 23 23 21 21 26 29 28 27
14 19 28 19 23 29 29 33 27 24 18 15 14 14 21 28 29 34 46 53 49 47 47 51 44 42 39 39 36 32 30 30 21 21 20 28 28 29 28 28 29 28 29
16 16 19 19 23 26 33 33 26 23 12 8 7 7 10 24 25 27 43 55 54 51 49 52 47 44 38 36 31 32 30 25 23 26 24 30 31 27 25 23 28 30 34
Wind_Direction
278 281 282 283 281 279 275 266 253 246 246 243 252 247 248 249 250 226 233 245 241 196 182 171 245 247 214 212 218 232 234 268 356 12 27 26 24 25 30 36 28 30 40
279 278 278 277 278 277 273 268 261 248 251 240 247 244 240 257 244 222 239 230 232 195 192 191 204 220 222 213 209 239 239 241 288 348 14 18 25 25 35 29 34 23 31
281 284 280 276 274 273 271 270 267 258 252 256 253 256 244 243 244 236 225 226 221 224 198 191 198 219 211 227 225 235 235 229 251 320 7 18 26 22 26 28 30 30 27
282 286 285 281 277 276 275 272 269 265 263 257 254 257 257 258 246 231 230 228 218 230 223 191 201 217 210 209 231 237 235 237 252 285 298 344 11 13 9 12 19 26 25
281 284 291 290 285 282 281 277 274 270 262 257 256 254 256 255 248 231 229 226 213 218 232 200 209 209 204 216 227 230 239 241 244 267 281 306 342 5 359 1 3 11 12
280 288 295 299 287 280 276 271 267 263 259 256 250 248 248 248 249 235 226 223 211 202 216 225 222 206 198 202 227 231 235 227 241 255 270 282 299 328 358 353 1 360 4
287 291 299 294 283 275 269 263 258 247 250 256 256 251 246 243 242 233 223 224 218 214 218 230 227 196 200 211 214 235 240 237 243 246 266 277 298 298 326 342 344 356 359
292 292 298 290 281 274 267 249 237 234 246 255 257 245 241 240 230 220 213 216 217 212 206 225 213 197 202 208 217 225 237 242 240 249 254 265 283 303 306 332 342 349 355
299 298 292 282 277 268 258 225 233 236 256 270 253 244 234 229 221 212 204 210 212 208 212 213 223 212 203 201 196 214 234 236 238 246 255 263 275 294 311 314 331 340 345
301 292 286 278 267 267 261 225 240 264 259 248 239 237 219 223 215 209 209 199 209 208 210 207 204 225 207 200 200 230 232 237 233 240 247 257 271 283 293 307 319 328 332
304 289 287 276 251 251 241 238 249 262 239 180 205 225 227 224 218 208 207 202 202 204 210 208 213 214 211 214 231 240 230 235 232 234 244 260 269 272 280 296 305 314 319
293 288 283 275 261 241 238 223 217 205 207 204 222 207 223 228 215 208 206 204 198 201 208 206 205 224 217 214 237 237 223 223 224 233 247 256 264 274 290 286 296 299 306
292 283 272 263 275 264 216 216 222 235 224 226 248 247 231 231 211 206 207 201 209 206 204 199 201 212 216 212 248 202 206 240 249 251 255 261 270 272 286 294 298 298 306
286 290 276 278 280 259 251 222 247 237 251 234 246 255 248 234 225 209 203 210 212 205 200 202 201 203 221 218 221 223 222 230 239 229 263 280 280 287 291 299 295 292 300
296 298 268 287 290 263 258 261 272 255 262 243 237 250 252 251 245 233 216 214 201 201 202 200 193 199 203 219 213 223 228 244 254 247 254 243 287 303 297 297 300 294 295
304 308 284 305 307 287 267 241 269 243 228 232 238 235 251 252 245 236 218 213 206 201 198 195 191 193 206 204 203 225 222 230 248 237 268 274 292 294 295 301 304 310 320
293 275 284 309 333 303 270 271 280 273 244 226 231 237 250 247 238 245 223 213 204 198 198 198 202 200 209 198 203 218 223 202 248 258 261 286 289 289 303 297 305 305 323
296 295 286 291 290 305 302 303 302 290 266 252 249 246 247 234 233 235 227 211 205 200 199 203 202 209 207 195 197 219 229 213 243 242 272 278 287 287 300 315 295 291 296
310 309 309 308 308 303 298 291 278 267 262 259 260 248 249 240 230 226 215 210 207 203 207 207 205 205 196 198 201 217 233 238 244 260 279 281 294 288 305 321 300 293 284
288 319 323 326 325 306 301 292 282 278 266 262 258 244 249 232 231 222 213 213 211 208 212 208 210 207 204 204 206 214 216 234 250 261 279 282 282 269 283 296 293 290 299
236 327 313 328 318 341 344 323 306 291 281 267 262 256 241 234 224 221 215 212 209 215 215 215 212 211 211 213 211 209 216 240 237 241 258 277 271 271 265 275 275 272 285
252 247 249 292 311 319 327 336 322 299 293 270 262 260 253 232 221 219 216 214 214 215 214 218 211 212 208 215 217 220 216 239 240 258 271 278 274 265 256 262 269 253 242
258 260 283 282 291 301 325 334 328 317 293 288 269 249 240 231 226 215 215 214 214 210 210 210 213 209 211 218 223 222 221 238 250 250 265 268 273 273 270 268 256 260 255
263 286 279 286 289 305 323 327 325 315 300 293 285 262 245 234 225 215 212 210 210 210 208 207 209 211 214 218 224 224 225 233 238 255 270 269 265 269 274 271 268 262 259
249 286 288 269 286 304 324 327 328 321 306 285 275 271 241 221 218 216 211 207 208 210 211 210 210 211 216 221 224 223 225 237 239 250 261 270 271 276 279 277 269 265 258
238 239 298 286 293 300 322 334 335 346 327 314 309 287 228 215 219 214 213 207 208 207 211 213 212 214 220 228 227 226 225 230 238 242 256 265 275 274 280 285 268 270 260
Height
10992 10990 10989 10988 10986 10985 10985 10986 10988 10989 10988 10989 10992 10995 10996 10997 10999 11002 11003 11004 11005 11004 11004 11004 11005 11005 11006 11005 11004 11004 11005 11004 11004 11003 11002 11000 10998 10996 10994 10991 10988 10987 10984
10984 10983 10980 10979 10977 10976 10976 10977 10978 10980 10981 10983 10984 10990 10992 10994 10997 10997 11000 11001 11001 11001 11002 11002 11002 11003 11005 11005 11004 11002 11004 11004 11005 11004 11002 11002 10999 10997 10995 10993 10990 10988 10986
10977 10975 10972 10969 10968 10968 10967 10969 10969 10971 10973 10973 10977 10981 10985 10990 10992 10993 10996 10998 10999 10999 11000 11000 11000 11001 11002 11004 11003 11001 11004 11004 11004 11004 11003 11002 11001 10998 10996 10994 10992 10990 10987
10966 10963 10962 10960 10958 10957 10958 10960 10961 10962 10964 10966 10969 10971 10975 10980 10986 10987 10989 10993 10995 10997 10998 10997 10999 10999 11001 11002 11003 11002 11003 11004 11004 11004 11003 11002 11001 11000 10997 10995 10993 10992 10990
10955 10954 10956 10953 10949 10948 10948 10948 10949 10949 10951 10954 10956 10961 10965 10969 10976 10980 10983 10986 10990 10992 10994 10995 10996 10998 10999 11000 11000 11000 11001 11001 11002 11002 11002 11002 11001 10999 10998 10996 10994 10993 10991
10948 10949 10947 10944 10940 10937 10936 10936 10937 10938 10939 10941 10943 10947 10952 10957 10963 10972 10975 10979 10983 10986 10991 10992 10994 10996 10997 10998 10999 10999 10999 10999 10999 11000 11000 11000 10999 10998 10998 10996 10995 10994 10992
10939 10939 10937 10932 10928 10927 10927 10927 10929 10930 10931 10932 10933 10936 10941 10947 10953 10959 10966 10973 10978 10980 10986 10989 10991 10993 10995 10996 10998 10997 10998 10997 10998 10998 10998 10998 10997 10997 10997 10996 10995 10994 10992
10931 10929 10927 10922 10919 10919 10919 10920 10922 10925 10926 10927 10927 10929 10932 10937 10944 10950 10957 10964 10971 10976 10979 10985 10988 10990 10992 10994 10995 10994 10995 10995 10996 10996 10996 10996 10996 10996 10996 10995 10994 10993 10992
10922 10918 10917 10915 10914 10914 10915 10917 10919 10923 10923 10922 10922 10922 10924 10930 10936 10943 10950 10956 10963 10969 10973 10980 10986 10987 10989 10992 10992 10991 10992 10993 10993 10994 10994 10995 10995 10994 10994 10993 10993 10992 10991
10917 10912 10912 10912 10913 10914 10914 10915 10917 10919 10919 10919 10918 10916 10917 10921 10926 10934 10942 10948 10956 10963 10969 10975 10979 10984 10985 10988 10989 10989 10989 10989 10989 10991 10992 10992 10992 10992 10991 10991 10991 10991 10990
10913 10909 10910 10911 10912 10913 10912 10910 10912 10912 10913 10915 10914 10914 10914 10917 10921 10927 10934 10941 10948 10955 10962 10969 10975 10981 10982 10984 10985 10987 10986 10985 10987 10987 10988 10990 10990 10990 10989 10989 10988 10989 10988
10908 10909 10909 10910 10910 10909 10907 10905 10904 10905 10908 10910 10911 10911 10913 10914 10915 10920 10926 10934 10941 10949 10955 10964 10971 10975 10979 10982 10982 10983 10983 10983 10984 10985 10986 10987 10987 10986 10986 10986 10986 10986 10985
10906 10906 10906 10906 10907 10904 10902 10903 10903 10905 10908 10910 10910 10911 10911 10913 10914 10913 10922 10927 10934 10944 10951 10958 10966 10972 10976 10979 10980 10981 10981 10982 10983 10985 10985 10984 10985 10985 10984 10984 10983 10982 10982
10903 10904 10905 10904 10902 10901 10901 10902 10903 10905 10906 10907 10906 10907 10909 10910 10913 10915 10917 10922 10930 10938 10944 10953 10959 10966 10972 10975 10978 10978 10978 10980 10982 10982 10983 10983 10982 10981 10981 10981 10979 10978 10978
10899 10901 10902 10901 10897 10896 10897 10900 10902 10903 10903 10904 10903 10903 10906 10908 10911 10914 10916 10920 10925 10933 10943 10948 10955 10960 10966 10971 10974 10976 10977 10977 10979 10980 10980 10980 10979 10978 10978 10977 10976 10974 10974
10896 10898 10899 10897 10894 10893 10894 10896 10898 10899 10899 10900 10900 10901 10902 10904 10908 10911 10913 10917 10922 10931 10937 10943 10948 10954 10961 10965 10969 10973 10973 10976 10977 10977 10977 10977 10976 10975 10975 10973 10973 10971 10971
10898 10899 10897 10894 10891 10890 10891 10895 10895 10895 10894 10896 10899 10898 10899 10899 10903 10907 10910 10914 10919 10927 10932 10938 10944 10948 10953 10958 10963 10969 10968 10971 10974 10975 10976 10974 10972 10971 10971 10970 10970 10969 10968
10898 10899 10897 10895 10893 10893 10893 10892 10893 10892 10894 10894 10894 10893 10893 10893 10897 10902 10905 10911 10916 10922 10928 10933 10939 10944 10948 10953 10958 10963 10965 10968 10970 10970 10971 10970 10969 10969 10968 10968 10967 10967 10967
10900 10899 10898 10897 10894 10894 10894 10894 10891 10890 10890 10889 10888 10890 10890 10890 10893 10898 10901 10906 10912 10918 10923 10929 10934 10939 10942 10947 10952 10958 10961 10964 10965 10966 10966 10966 10965 10965 10964 10965 10965 10965 10965
10892 10889 10890 10892 10892 10888 10886 10886 10884 10883 10882 10880 10881 10881 10881 10884 10888 10892 10897 10901 10907 10913 10918 10924 10930 10935 10938 10942 10947 10952 10956 10960 10961 10961 10961 10962 10961 10960 10961 10961 10963 10961 10961
10888 10887 10888 10889 10894 10888 10882 10877 10873 10873 10874 10871 10868 10869 10873 10875 10878 10884 10890 10896 10902 10908 10914 10918 10926 10930 10934 10938 10941 10946 10950 10954 10956 10956 10957 10958 10958 10957 10957 10957 10959 10960 10958
10900 10888 10884 10885 10890 10892 10884 10877 10869 10866 10865 10864 10862 10861 10863 10865 10866 10872 10882 10889 10895 10902 10907 10914 10921 10926 10930 10933 10937 10941 10943 10947 10951 10952 10954 10954 10952 10953 10953 10954 10955 10955 10954
10902 10894 10887 10885 10884 10888 10880 10870 10865 10859 10856 10853 10851 10851 10852 10856 10859 10865 10871 10880 10888 10895 10901 10909 10915 10921 10926 10929 10932 10935 10937 10940 10943 10947 10948 10949 10948 10947 10948 10949 10949 10950 10949
10901 10893 10882 10880 10884 10888 10879 10870 10860 10853 10849 10845 10840 10838 10842 10848 10851 10857 10864 10872 10880 10888 10896 10903 10910 10915 10920 10923 10928 10931 10933 10936 10936 10939 10940 10942 10943 10943 10942 10942 10943 10943 10943
10885 10881 10877 10874 10880 10886 10878 10868 10859 10850 10844 10841 10836 10834 10833 10841 10846 10850 10856 10865 10873 10882 10890 10897 10903 10909 10915 10920 10923 10927 10929 10930 10930 10932 10934 10937 10937 10937 10936 10936 10935 10935 10936
10875 10872 10870 10870 10877 10879 10872 10861 10853 10845 10840 10837 10834 10833 10832 10837 10841 10845 10850 10858 10868 10876 10883 10890 10897 10904 10910 10915 10918 10920 10922 10924 10925 10927 10929 10931 10931 10932 10930 10930 10929 10929 10928